Time,TemperatureF,DewpointF,PressureIn,WindDirection,WindDirectionDegrees,WindSpeedMPH,WindSpeedGustMPH,Humidity,HourlyPrecipIn,Conditions,Clouds,dailyrainin,SoftwareType,DateUTC
2013-06-18 00:00:00,58.2,57.4,29.96,NNW,342,0.0,0.0,97,0.00,,CLR,0.07,VWS V14.01,2013-06-18 04:00:00,
2013-06-18 00:01:00,58.2,57.4,29.96,NNW,343,0.0,0.0,97,0.00,,CLR,0.07,VWS V14.01,2013-06-18 04:01:00,
2013-06-18 00:02:00,58.2,57.4,29.96,NNW,343,0.0,0.0,97,0.00,,CLR,0.07,VWS V14.01,2013-06-18 04:02:00,
2013-06-18 00:07:00,58.0,57.2,29.96,NNW,343,0.0,0.0,97,0.00,,CLR,0.00,VWS V14.01,2013-06-18 04:07:00,
2013-06-18 00:13:00,57.9,57.1,29.96,NNW,342,0.0,0.0,97,0.00,,CLR,0.00,VWS V14.01,2013-06-18 04:13:00,
2013-06-18 00:18:00,57.7,56.9,29.97,West,280,0.0,0.0,97,0.00,,CLR,0.00,VWS V14.01,2013-06-18 04:18:00,
2013-06-18 00:23:00,57.4,56.6,29.96,West,280,0.0,0.0,97,0.00,,CLR,0.00,VWS V14.01,2013-06-18 04:23:00,
2013-06-18 00:28:00,57.3,56.5,29.96,West,280,0.0,0.0,97,0.00,,CLR,0.00,VWS V14.01,2013-06-18 04:28:00,
2013-06-18 00:30:00,57.2,56.4,29.96,West,279,0.0,0.0,97,0.00,,FEW120,0.00,VWS V14.01,2013-06-18 04:30:00,
2013-06-18 00:33:00,57.2,56.4,29.96,West,280,0.0,0.0,97,0.00,,CLR,0.00,VWS V14.01,2013-06-18 04:33:00,
2013-06-18 00:38:00,57.2,56.4,29.96,West,279,0.0,0.0,97,0.00,,CLR,0.00,VWS V14.01,2013-06-18 04:38:00,
2013-06-18 00:43:00,57.2,56.4,29.96,West,280,0.0,0.0,97,0.00,,CLR,0.00,VWS V14.01,2013-06-18 04:43:00,
2013-06-18 00:48:00,57.0,56.2,29.96,West,280,0.0,0.0,97,0.00,,CLR,0.00,VWS V14.01,2013-06-18 04:48:00,
2013-06-18 00:53:00,56.9,56.1,29.95,West,280,0.0,0.0,97,0.00,,CLR,0.00,VWS V14.01,2013-06-18 04:53:00,
2013-06-18 00:59:00,56.8,56.0,29.95,West,280,0.0,0.0,97,0.00,,CLR,0.00,VWS V14.01,2013-06-18 04:59:00,
2013-06-18 01:00:00,56.7,55.9,29.95,West,280,0.0,0.0,97,0.00,,FEW120,0.00,VWS V14.01,2013-06-18 05:00:00,
2013-06-18 01:04:00,56.7,55.9,29.95,West,280,0.0,0.0,97,0.00,,CLR,0.00,VWS V14.01,2013-06-18 05:04:00,
2013-06-18 01:09:00,56.6,55.8,29.95,West,280,0.0,0.0,97,0.00,,CLR,0.00,VWS V14.01,2013-06-18 05:09:00,
2013-06-18 01:14:00,56.7,55.9,29.95,West,280,0.0,0.0,97,0.00,,CLR,0.00,VWS V14.01,2013-06-18 05:14:00,
2013-06-18 01:19:00,56.6,55.8,29.95,West,279,0.0,0.0,97,0.00,,CLR,0.00,VWS V14.01,2013-06-18 05:19:00,
2013-06-18 01:24:00,56.7,55.9,29.95,West,280,0.0,0.0,97,0.00,,CLR,0.00,VWS V14.01,2013-06-18 05:24:00,
2013-06-18 01:29:00,56.7,55.9,29.95,West,280,0.0,0.0,97,0.00,,CLR,0.00,VWS V14.01,2013-06-18 05:29:00,
2013-06-18 01:30:00,56.8,56.0,29.95,West,280,0.0,0.0,97,0.00,,FEW120,0.00,VWS V14.01,2013-06-18 05:30:00,
2013-06-18 01:34:00,56.8,56.0,29.95,West,280,0.0,0.0,97,0.00,,CLR,0.00,VWS V14.01,2013-06-18 05:34:00,
2013-06-18 01:39:00,56.8,56.0,29.95,West,280,0.0,0.0,97,0.00,,CLR,0.00,VWS V14.01,2013-06-18 05:39:00,
2013-06-18 01:44:00,56.8,56.0,29.95,West,280,0.0,0.0,97,0.00,,CLR,0.00,VWS V14.01,2013-06-18 05:44:00,
2013-06-18 01:50:00,56.8,56.0,29.95,West,280,0.0,0.0,97,0.00,,CLR,0.00,VWS V14.01,2013-06-18 05:50:00,
2013-06-18 01:55:00,56.8,56.0,29.95,West,280,0.0,0.0,97,0.00,,CLR,0.00,VWS V14.01,2013-06-18 05:55:00,
2013-06-18 02:00:00,56.8,56.2,29.96,West,280,0.0,0.0,98,0.00,,CLR,0.00,VWS V14.01,2013-06-18 06:00:00,
2013-06-18 02:05:00,57.0,56.4,29.96,West,279,0.0,0.0,98,0.00,,CLR,0.00,VWS V14.01,2013-06-18 06:05:00,
2013-06-18 02:10:00,57.2,56.6,29.96,West,280,0.0,0.0,98,0.00,,CLR,0.00,VWS V14.01,2013-06-18 06:10:00,
2013-06-18 02:15:00,57.3,56.7,29.96,West,280,0.0,0.0,98,0.00,,CLR,0.00,VWS V14.01,2013-06-18 06:15:00,
2013-06-18 02:20:00,57.2,56.6,29.96,West,280,0.0,0.0,98,0.00,,CLR,0.00,VWS V14.01,2013-06-18 06:20:00,
2013-06-18 02:25:00,57.2,56.6,29.95,WSW,253,0.0,0.0,98,0.00,,CLR,0.00,VWS V14.01,2013-06-18 06:25:00,
2013-06-18 02:30:00,57.1,56.5,29.95,WSW,248,0.0,0.0,98,0.00,,CLR,0.00,VWS V14.01,2013-06-18 06:30:00,
2013-06-18 02:35:00,56.9,56.1,29.95,WSW,249,0.0,0.0,97,0.00,,BKN075,0.00,VWS V14.01,2013-06-18 06:35:00,
2013-06-18 02:41:00,57.0,56.4,29.94,WSW,249,0.0,0.0,98,0.00,,BKN075,0.00,VWS V14.01,2013-06-18 06:41:00,
2013-06-18 02:46:00,57.0,56.4,29.94,SE,138,0.0,2.0,98,0.00,,BKN075,0.00,VWS V14.01,2013-06-18 06:46:00,
2013-06-18 02:51:00,57.0,56.4,29.94,South,174,0.0,2.0,98,0.00,,BKN075,0.00,VWS V14.01,2013-06-18 06:51:00,
2013-06-18 02:56:00,57.0,56.4,29.94,South,174,0.0,2.0,98,0.00,,BKN075,0.00,VWS V14.01,2013-06-18 06:56:00,
2013-06-18 03:00:00,57.0,56.4,29.93,South,175,0.0,2.0,98,0.00,,FEW120,0.00,VWS V14.01,2013-06-18 07:00:00,
2013-06-18 03:01:00,57.0,56.4,29.93,South,174,0.0,2.0,98,0.00,,BKN075,0.00,VWS V14.01,2013-06-18 07:01:00,
2013-06-18 03:06:00,57.1,56.5,29.93,South,176,0.0,0.0,98,0.00,,BKN075,0.00,VWS V14.01,2013-06-18 07:06:00,
2013-06-18 03:11:00,57.1,56.5,29.94,South,174,0.0,0.0,98,0.00,,BKN075,0.00,VWS V14.01,2013-06-18 07:11:00,
2013-06-18 03:17:00,57.2,56.6,29.94,South,182,0.0,0.0,98,0.00,,BKN075,0.00,VWS V14.01,2013-06-18 07:17:00,
2013-06-18 03:22:00,57.2,56.6,29.94,South,187,0.0,0.0,98,0.00,,BKN075,0.00,VWS V14.01,2013-06-18 07:22:00,
2013-06-18 03:27:00,57.4,56.8,29.94,South,187,0.0,0.0,98,0.00,,BKN075,0.00,VWS V14.01,2013-06-18 07:27:00,
2013-06-18 03:30:00,57.6,57.0,29.94,South,188,0.0,0.0,98,0.00,,FEW120,0.00,VWS V14.01,2013-06-18 07:30:00,
2013-06-18 03:32:00,57.6,57.0,29.94,South,187,0.0,0.0,98,0.00,,BKN075,0.00,VWS V14.01,2013-06-18 07:32:00,
2013-06-18 03:37:00,57.6,57.0,29.94,South,186,0.0,0.0,98,0.00,,BKN075,0.00,VWS V14.01,2013-06-18 07:37:00,
2013-06-18 03:42:00,57.9,57.3,29.94,ENE,68,0.0,1.0,98,0.00,,BKN075,0.00,VWS V14.01,2013-06-18 07:42:00,
2013-06-18 03:47:00,58.0,57.4,29.94,ENE,68,0.0,1.0,98,0.00,,OVC110,0.00,VWS V14.01,2013-06-18 07:47:00,
2013-06-18 03:52:00,58.1,57.5,29.94,ENE,68,0.0,1.0,98,0.00,,OVC110,0.00,VWS V14.01,2013-06-18 07:52:00,
2013-06-18 03:57:00,58.1,57.5,29.94,ENE,68,0.0,1.0,98,0.00,,OVC110,0.00,VWS V14.01,2013-06-18 07:57:00,
2013-06-18 04:00:00,58.0,57.4,29.94,ENE,68,0.0,1.0,98,0.00,,FEW120,0.00,VWS V14.01,2013-06-18 08:00:00,
2013-06-18 04:03:00,58.0,57.4,29.94,ENE,68,0.0,1.0,98,0.00,,OVC110,0.00,VWS V14.01,2013-06-18 08:03:00,
2013-06-18 04:08:00,57.9,57.3,29.94,ENE,68,0.0,0.0,98,0.00,,OVC110,0.00,VWS V14.01,2013-06-18 08:08:00,
2013-06-18 04:13:00,57.9,57.3,29.93,ENE,68,0.0,0.0,98,0.00,,OVC110,0.00,VWS V14.01,2013-06-18 08:13:00,
2013-06-18 04:18:00,57.9,57.3,29.94,ENE,68,0.0,0.0,98,0.00,,OVC110,0.00,VWS V14.01,2013-06-18 08:18:00,
2013-06-18 04:23:00,57.9,57.3,29.93,ENE,68,0.0,0.0,98,0.00,,OVC110,0.00,VWS V14.01,2013-06-18 08:23:00,
2013-06-18 04:28:00,57.8,57.2,29.93,ENE,68,0.0,0.0,98,0.00,,OVC110,0.00,VWS V14.01,2013-06-18 08:28:00,
2013-06-18 04:30:00,57.8,57.2,29.93,ENE,68,0.0,0.0,98,0.00,,FEW120,0.00,VWS V14.01,2013-06-18 08:30:00,
2013-06-18 04:33:00,57.8,57.2,29.93,ENE,68,0.0,0.0,98,0.00,,OVC110,0.00,VWS V14.01,2013-06-18 08:33:00,
2013-06-18 04:38:00,57.8,57.2,29.93,ENE,68,0.0,0.0,98,0.00,,OVC110,0.00,VWS V14.01,2013-06-18 08:38:00,
2013-06-18 04:43:00,57.8,57.2,29.93,ENE,68,0.0,0.0,98,0.01,,OVC110,0.01,VWS V14.01,2013-06-18 08:43:00,
2013-06-18 04:48:00,57.8,57.2,29.93,ENE,68,0.0,0.0,98,0.01,,OVC100,0.01,VWS V14.01,2013-06-18 08:48:00,
2013-06-18 04:54:00,57.9,57.3,29.93,ENE,68,0.0,0.0,98,0.01,,OVC100,0.01,VWS V14.01,2013-06-18 08:54:00,
2013-06-18 04:59:00,57.9,57.3,29.93,ENE,68,0.0,0.0,98,0.01,,OVC100,0.01,VWS V14.01,2013-06-18 08:59:00,
2013-06-18 05:00:00,57.9,57.3,29.93,ENE,68,0.0,0.0,98,0.01,,FEW120,0.01,VWS V14.01,2013-06-18 09:00:00,
2013-06-18 05:04:00,57.9,57.3,29.93,ENE,68,0.0,0.0,98,0.01,,OVC100,0.01,VWS V14.01,2013-06-18 09:04:00,
2013-06-18 05:09:00,57.9,57.3,29.93,ENE,68,0.0,0.0,98,0.01,,OVC100,0.01,VWS V14.01,2013-06-18 09:09:00,
2013-06-18 05:14:00,57.8,57.2,29.93,ENE,68,0.0,0.0,98,0.01,,OVC100,0.01,VWS V14.01,2013-06-18 09:14:00,
2013-06-18 05:19:00,57.8,57.2,29.93,ENE,66,0.0,0.0,98,0.01,,OVC100,0.01,VWS V14.01,2013-06-18 09:19:00,
2013-06-18 05:24:00,57.8,57.2,29.94,ENE,66,0.0,0.0,98,0.01,,OVC100,0.01,VWS V14.01,2013-06-18 09:24:00,
2013-06-18 05:29:00,57.8,57.2,29.94,ENE,67,0.0,0.0,98,0.01,,OVC100,0.01,VWS V14.01,2013-06-18 09:29:00,
2013-06-18 05:30:00,57.8,57.2,29.94,ENE,67,0.0,0.0,98,0.01,,FEW120,0.01,VWS V14.01,2013-06-18 09:30:00,
2013-06-18 05:34:00,57.8,57.2,29.94,ENE,66,0.0,0.0,98,0.01,,OVC100,0.01,VWS V14.01,2013-06-18 09:34:00,
2013-06-18 05:40:00,57.8,57.2,29.94,ENE,66,0.0,0.0,98,0.01,,OVC100,0.01,VWS V14.01,2013-06-18 09:40:00,
2013-06-18 05:45:00,57.8,57.2,29.94,ENE,66,0.0,0.0,98,0.01,,BKN120,0.01,VWS V14.01,2013-06-18 09:45:00,
2013-06-18 05:50:00,57.7,57.1,29.94,ENE,66,0.0,0.0,98,0.01,,BKN120,0.01,VWS V14.01,2013-06-18 09:50:00,
2013-06-18 05:55:00,57.6,57.0,29.94,ENE,66,0.0,0.0,98,0.01,,BKN120,0.01,VWS V14.01,2013-06-18 09:55:00,
2013-06-18 06:00:00,57.5,56.9,29.94,ENE,66,0.0,0.0,98,0.01,,BKN120,0.01,VWS V14.01,2013-06-18 10:00:00,
2013-06-18 06:05:00,57.4,56.8,29.94,ENE,64,0.0,0.0,98,0.00,,BKN120,0.01,VWS V14.01,2013-06-18 10:05:00,
2013-06-18 06:10:00,57.3,56.7,29.94,West,268,0.0,2.0,98,0.00,,BKN120,0.01,VWS V14.01,2013-06-18 10:10:00,
2013-06-18 06:15:00,57.6,57.0,29.94,NW,314,0.0,2.0,98,0.00,,BKN120,0.01,VWS V14.01,2013-06-18 10:15:00,
2013-06-18 06:20:00,58.0,57.4,29.95,WNW,297,2.0,2.0,98,0.00,,BKN120,0.01,VWS V14.01,2013-06-18 10:20:00,
2013-06-18 06:26:00,58.3,57.7,29.95,WNW,285,1.0,2.0,98,0.00,,BKN120,0.01,VWS V14.01,2013-06-18 10:26:00,
2013-06-18 06:30:00,58.5,57.9,29.95,North,355,1.0,2.0,98,0.00,,FEW120,0.01,VWS V14.01,2013-06-18 10:30:00,
2013-06-18 06:31:00,58.5,57.9,29.96,NW,316,1.0,2.0,98,0.00,,BKN120,0.01,VWS V14.01,2013-06-18 10:31:00,
2013-06-18 06:36:00,58.7,58.1,29.95,West,278,1.0,1.0,98,0.00,,BKN120,0.01,VWS V14.01,2013-06-18 10:36:00,
2013-06-18 06:41:00,59.0,58.4,29.96,WNW,298,0.0,1.0,98,0.00,,BKN120,0.01,VWS V14.01,2013-06-18 10:41:00,
2013-06-18 06:46:00,59.2,58.6,29.96,NNW,335,1.0,1.0,98,0.00,,OVC100,0.01,VWS V14.01,2013-06-18 10:46:00,
2013-06-18 06:51:00,59.2,58.6,29.96,NW,322,0.0,2.0,98,0.00,,OVC100,0.01,VWS V14.01,2013-06-18 10:51:00,
2013-06-18 06:56:00,59.2,58.6,29.97,WNW,293,1.0,2.0,98,0.00,,OVC100,0.01,VWS V14.01,2013-06-18 10:56:00,
2013-06-18 07:00:00,59.1,58.5,29.96,ESE,118,0.0,3.0,98,0.00,,FEW120,0.01,VWS V14.01,2013-06-18 11:00:00,
2013-06-18 07:01:00,59.1,58.5,29.96,WNW,293,1.0,3.0,98,0.00,,OVC100,0.01,VWS V14.01,2013-06-18 11:01:00,
2013-06-18 07:06:00,59.0,58.4,29.97,SW,227,2.0,4.0,98,0.00,,OVC100,0.01,VWS V14.01,2013-06-18 11:06:00,
2013-06-18 07:11:00,58.8,58.2,29.97,WNW,290,1.0,4.0,98,0.00,,OVC100,0.01,VWS V14.01,2013-06-18 11:11:00,
2013-06-18 07:17:00,58.8,58.2,29.97,West,281,0.0,4.0,98,0.00,,OVC100,0.01,VWS V14.01,2013-06-18 11:17:00,
2013-06-18 07:22:00,59.1,58.5,29.98,North,1,0.0,4.0,98,0.00,,OVC100,0.01,VWS V14.01,2013-06-18 11:22:00,
2013-06-18 07:27:00,59.1,58.5,29.98,NW,324,0.0,4.0,98,0.00,,OVC100,0.01,VWS V14.01,2013-06-18 11:27:00,
2013-06-18 07:30:00,59.2,58.6,29.98,SW,235,1.0,4.0,98,0.00,,FEW120,0.01,VWS V14.01,2013-06-18 11:30:00,
2013-06-18 07:32:00,59.1,58.5,29.98,WNW,292,0.0,4.0,98,0.00,,OVC100,0.01,VWS V14.01,2013-06-18 11:32:00,
2013-06-18 07:37:00,59.0,58.4,29.98,NNE,32,1.0,2.0,98,0.00,,OVC100,0.01,VWS V14.01,2013-06-18 11:37:00,
2013-06-18 07:42:00,58.9,58.3,29.98,NW,305,2.0,3.0,98,0.00,,OVC100,0.01,VWS V14.01,2013-06-18 11:42:00,
2013-06-18 07:47:00,58.8,58.2,29.98,WNW,283,1.0,3.0,98,0.00,,FEW120,0.01,VWS V14.01,2013-06-18 11:47:00,
2013-06-18 07:52:00,58.5,57.7,29.98,WNW,295,2.0,5.0,97,0.00,,FEW120,0.01,VWS V14.01,2013-06-18 11:52:00,
2013-06-18 07:57:00,58.2,57.4,29.98,ENE,65,1.0,5.0,97,0.00,,FEW120,0.01,VWS V14.01,2013-06-18 11:57:00,
2013-06-18 08:00:00,58.0,57.2,29.98,ENE,77,2.0,5.0,97,0.00,,CLR,0.01,VWS V14.01,2013-06-18 12:00:00,
2013-06-18 08:02:00,58.0,57.2,29.98,SE,135,3.0,5.0,97,0.00,,FEW120,0.01,VWS V14.01,2013-06-18 12:02:00,
2013-06-18 08:08:00,57.9,57.1,29.98,NW,321,3.0,4.0,97,0.00,,FEW120,0.01,VWS V14.01,2013-06-18 12:08:00,
2013-06-18 08:13:00,57.9,57.1,29.98,SW,236,1.0,4.0,97,0.00,,FEW120,0.01,VWS V14.01,2013-06-18 12:13:00,
2013-06-18 08:18:00,57.9,57.3,29.98,North,6,0.0,4.0,98,0.00,,FEW120,0.01,VWS V14.01,2013-06-18 12:18:00,
2013-06-18 08:23:00,58.1,57.5,29.98,SE,135,0.0,4.0,98,0.00,,FEW120,0.01,VWS V14.01,2013-06-18 12:23:00,
2013-06-18 08:28:00,58.2,57.6,29.98,West,260,1.0,4.0,98,0.00,,FEW120,0.01,VWS V14.01,2013-06-18 12:28:00,
2013-06-18 08:30:00,58.1,57.5,29.98,SW,228,2.0,4.0,98,0.00,,CLR,0.01,VWS V14.01,2013-06-18 12:30:00,
2013-06-18 08:33:00,58.1,57.5,29.98,SW,217,0.0,2.0,98,0.00,,FEW120,0.01,VWS V14.01,2013-06-18 12:33:00,
2013-06-18 08:38:00,58.1,57.5,29.99,WNW,288,0.0,2.0,98,0.00,,FEW120,0.01,VWS V14.01,2013-06-18 12:38:00,
2013-06-18 08:43:00,57.9,57.3,30.00,NNW,334,2.0,3.0,98,0.00,,FEW120,0.01,VWS V14.01,2013-06-18 12:43:00,
2013-06-18 08:49:00,57.7,56.9,30.00,WSW,245,1.0,3.0,97,0.00,,FEW120,0.01,VWS V14.01,2013-06-18 12:49:00,
2013-06-18 08:54:00,57.5,56.7,30.00,NW,308,1.0,4.0,97,0.00,,FEW120,0.01,VWS V14.01,2013-06-18 12:54:00,
2013-06-18 08:59:00,57.2,56.4,30.00,West,269,1.0,4.0,97,0.00,,FEW120,0.01,VWS V14.01,2013-06-18 12:59:00,
2013-06-18 09:00:00,57.1,56.3,30.00,West,277,0.0,4.0,97,0.00,,CLR,0.01,VWS V14.01,2013-06-18 13:00:00,
2013-06-18 09:04:00,57.1,56.3,30.00,West,278,0.0,1.0,97,0.00,,FEW120,0.01,VWS V14.01,2013-06-18 13:04:00,
2013-06-18 09:09:00,56.9,56.1,30.00,NE,34,1.0,3.0,97,0.00,,FEW120,0.01,VWS V14.01,2013-06-18 13:09:00,
2013-06-18 09:14:00,56.9,56.1,30.01,SW,230,0.0,3.0,97,0.00,,FEW120,0.01,VWS V14.01,2013-06-18 13:14:00,
2013-06-18 09:19:00,56.9,56.1,30.00,ESE,118,1.0,3.0,97,0.00,,FEW120,0.01,VWS V14.01,2013-06-18 13:19:00,
2013-06-18 09:24:00,56.9,56.1,30.01,SW,232,1.0,3.0,97,0.00,,FEW120,0.01,VWS V14.01,2013-06-18 13:24:00,
2013-06-18 09:29:00,56.7,55.9,30.02,WSW,245,1.0,3.0,97,0.00,,FEW120,0.01,VWS V14.01,2013-06-18 13:29:00,
2013-06-18 09:30:00,56.7,55.9,30.01,WSW,246,0.0,3.0,97,0.00,,CLR,0.01,VWS V14.01,2013-06-18 13:30:00,
2013-06-18 09:35:00,56.7,55.9,30.01,WSW,243,0.0,1.0,97,0.00,,,0.01,VWS V14.01,2013-06-18 13:35:00,
2013-06-18 09:40:00,56.6,55.8,30.01,West,276,0.0,4.0,97,0.00,,,0.01,VWS V14.01,2013-06-18 13:40:00,
2013-06-18 09:45:00,56.6,55.8,30.01,NW,312,0.0,4.0,97,0.00,,,0.01,VWS V14.01,2013-06-18 13:45:00,
2013-06-18 09:50:00,56.8,56.0,30.01,SE,141,0.0,4.0,97,0.00,,,0.01,VWS V14.01,2013-06-18 13:50:00,
2013-06-18 09:55:00,57.0,55.9,30.01,North,359,0.0,4.0,96,0.00,,,0.01,VWS V14.01,2013-06-18 13:55:00,
2013-06-18 10:00:00,56.8,55.4,30.01,SSE,157,0.0,4.0,95,0.00,,,0.01,VWS V14.01,2013-06-18 14:00:00,
2013-06-18 10:05:00,56.8,55.1,30.01,North,1,0.0,2.0,94,0.00,,,0.01,VWS V14.01,2013-06-18 14:05:00,
2013-06-18 10:10:00,57.0,55.3,30.01,WSW,255,1.0,2.0,94,0.00,,,0.01,VWS V14.01,2013-06-18 14:10:00,
2013-06-18 10:15:00,57.0,54.7,30.01,North,6,1.0,6.0,92,0.00,,,0.01,VWS V14.01,2013-06-18 14:15:00,
2013-06-18 10:20:00,57.1,54.8,30.01,WNW,297,1.0,6.0,92,0.00,,,0.01,VWS V14.01,2013-06-18 14:20:00,
2013-06-18 10:26:00,57.1,54.5,30.01,West,263,0.0,6.0,91,0.00,,,0.01,VWS V14.01,2013-06-18 14:26:00,
2013-06-18 10:30:00,57.2,54.6,30.01,West,276,0.0,6.0,91,0.00,,CLR,0.01,VWS V14.01,2013-06-18 14:30:00,
2013-06-18 10:31:00,57.2,54.6,30.01,West,277,1.0,6.0,91,0.00,,,0.01,VWS V14.01,2013-06-18 14:31:00,
2013-06-18 10:36:00,57.4,54.8,30.01,West,276,0.0,2.0,91,0.00,,,0.01,VWS V14.01,2013-06-18 14:36:00,
2013-06-18 10:41:00,57.9,55.3,30.01,ESE,107,0.0,3.0,91,0.00,,,0.01,VWS V14.01,2013-06-18 14:41:00,
2013-06-18 10:46:00,58.3,55.4,30.01,WNW,283,0.0,4.0,90,0.00,,OVC007,0.01,VWS V14.01,2013-06-18 14:46:00,
2013-06-18 10:51:00,58.5,55.3,30.01,NW,316,0.0,4.0,89,0.00,,OVC007,0.01,VWS V14.01,2013-06-18 14:51:00,
2013-06-18 10:56:00,58.4,54.9,30.01,SSE,147,0.0,4.0,88,0.00,,OVC007,0.01,VWS V14.01,2013-06-18 14:56:00,
2013-06-18 11:00:00,58.6,55.1,30.01,NW,324,0.0,4.0,88,0.00,,CLR,0.01,VWS V14.01,2013-06-18 15:00:00,
2013-06-18 11:01:00,58.6,55.1,30.01,ESE,115,0.0,4.0,88,0.00,,OVC007,0.01,VWS V14.01,2013-06-18 15:01:00,
2013-06-18 11:06:00,58.8,55.3,30.01,WSW,256,0.0,1.0,88,0.00,,OVC007,0.01,VWS V14.01,2013-06-18 15:06:00,
2013-06-18 11:12:00,59.2,55.7,30.01,NW,307,0.0,2.0,88,0.00,,OVC007,0.01,VWS V14.01,2013-06-18 15:12:00,
2013-06-18 11:17:00,59.5,56.0,30.01,SE,124,0.0,2.0,88,0.00,,OVC007,0.01,VWS V14.01,2013-06-18 15:17:00,
2013-06-18 11:22:00,59.9,56.0,30.01,NNW,333,0.0,2.0,87,0.00,,OVC007,0.01,VWS V14.01,2013-06-18 15:22:00,
2013-06-18 11:27:00,60.1,55.9,30.01,NW,311,0.0,2.0,86,0.00,,OVC007,0.01,VWS V14.01,2013-06-18 15:27:00,
2013-06-18 11:30:00,60.2,56.0,30.01,NNE,17,0.0,4.0,86,0.00,,CLR,0.01,VWS V14.01,2013-06-18 15:30:00,
2013-06-18 11:32:00,60.1,55.6,30.01,NNE,17,0.0,4.0,85,0.00,,OVC007,0.01,VWS V14.01,2013-06-18 15:32:00,
2013-06-18 11:37:00,60.4,55.9,30.01,ESE,110,0.0,0.0,85,0.00,,OVC007,0.01,VWS V14.01,2013-06-18 15:37:00,
2013-06-18 11:42:00,60.6,56.1,30.01,NNW,345,2.0,2.0,85,0.00,,OVC007,0.01,VWS V14.01,2013-06-18 15:42:00,
2013-06-18 11:47:00,60.7,56.2,30.01,NNW,327,0.0,2.0,85,0.00,,OVC011,0.01,VWS V14.01,2013-06-18 15:47:00,
2013-06-18 11:52:00,61.2,57.0,30.01,SE,139,4.0,4.0,86,0.00,,OVC011,0.01,VWS V14.01,2013-06-18 15:52:00,
2013-06-18 11:58:00,61.7,57.2,30.01,NW,316,2.0,4.0,85,0.00,,OVC011,0.01,VWS V14.01,2013-06-18 15:58:00,
2013-06-18 12:00:00,61.7,56.5,30.01,SW,215,0.0,4.0,83,0.00,,CLR,0.01,VWS V14.01,2013-06-18 16:00:00,
2013-06-18 12:03:00,61.7,56.5,30.01,SW,215,0.0,4.0,83,0.00,,OVC011,0.01,VWS V14.01,2013-06-18 16:03:00,
2013-06-18 12:08:00,62.1,56.5,30.01,NE,44,0.0,1.0,82,0.00,,OVC011,0.01,VWS V14.01,2013-06-18 16:08:00,
2013-06-18 12:13:00,62.5,57.3,30.01,WNW,297,2.0,2.0,83,0.00,,OVC011,0.01,VWS V14.01,2013-06-18 16:13:00,
2013-06-18 12:18:00,62.9,57.7,30.01,East,90,0.0,2.0,83,0.00,,OVC011,0.01,VWS V14.01,2013-06-18 16:18:00,
2013-06-18 12:23:00,63.0,56.7,30.01,SE,135,1.0,3.0,80,0.00,,OVC011,0.01,VWS V14.01,2013-06-18 16:23:00,
2013-06-18 12:28:00,62.9,56.6,30.01,West,262,0.0,3.0,80,0.00,,OVC011,0.01,VWS V14.01,2013-06-18 16:28:00,
2013-06-18 12:30:00,63.0,56.7,30.01,NNE,16,1.0,6.0,80,0.00,,CLR,0.01,VWS V14.01,2013-06-18 16:30:00,
2013-06-18 12:33:00,63.0,56.4,30.01,NW,307,0.0,5.0,79,0.00,,OVC015,0.01,VWS V14.01,2013-06-18 16:33:00,
2013-06-18 12:38:00,63.2,56.9,30.01,NW,311,3.0,5.0,80,0.00,,OVC015,0.01,VWS V14.01,2013-06-18 16:38:00,
2013-06-18 12:43:00,63.3,56.7,30.01,NNE,12,1.0,5.0,79,0.00,,OVC015,0.01,VWS V14.01,2013-06-18 16:43:00,
2013-06-18 12:48:00,63.7,57.8,30.00,ENE,77,1.0,5.0,81,0.00,,OVC015,0.01,VWS V14.01,2013-06-18 16:48:00,
2013-06-18 12:54:00,64.3,57.3,30.00,SW,229,0.0,5.0,78,0.00,,OVC015,0.01,VWS V14.01,2013-06-18 16:54:00,
2013-06-18 12:59:00,64.5,57.8,30.00,ESE,113,0.0,5.0,79,0.00,,OVC015,0.01,VWS V14.01,2013-06-18 16:59:00,
2013-06-18 13:00:00,64.8,57.4,30.01,ENE,63,0.0,5.0,77,0.00,,CLR,0.01,VWS V14.01,2013-06-18 17:00:00,
2013-06-18 13:04:00,64.9,58.2,30.01,ENE,63,0.0,0.0,79,0.00,,OVC015,0.01,VWS V14.01,2013-06-18 17:04:00,
2013-06-18 13:09:00,65.3,57.2,30.01,SE,130,0.0,1.0,75,0.00,,OVC015,0.01,VWS V14.01,2013-06-18 17:09:00,
2013-06-18 13:14:00,65.2,57.5,30.01,NNE,15,0.0,5.0,76,0.00,,OVC015,0.01,VWS V14.01,2013-06-18 17:14:00,
2013-06-18 13:19:00,65.1,57.0,30.01,NW,305,1.0,5.0,75,0.00,,OVC015,0.01,VWS V14.01,2013-06-18 17:19:00,
2013-06-18 13:24:00,64.9,57.2,30.01,WNW,301,0.0,5.0,76,0.00,,OVC015,0.01,VWS V14.01,2013-06-18 17:24:00,
2013-06-18 13:29:00,64.7,56.6,30.01,North,353,1.0,5.0,75,0.00,,OVC015,0.01,VWS V14.01,2013-06-18 17:29:00,
2013-06-18 13:30:00,64.4,56.7,30.01,NW,311,1.0,5.0,76,0.00,,CLR,0.01,VWS V14.01,2013-06-18 17:30:00,
2013-06-18 13:35:00,64.3,56.2,30.01,NW,322,0.0,3.0,75,0.00,,OVC015,0.01,VWS V14.01,2013-06-18 17:35:00,
2013-06-18 13:40:00,64.3,57.0,30.01,WSW,246,0.0,3.0,77,0.00,,OVC015,0.01,VWS V14.01,2013-06-18 17:40:00,
2013-06-18 13:45:00,64.7,56.2,30.01,South,180,0.0,4.0,74,0.00,,OVC017,0.01,VWS V14.01,2013-06-18 17:45:00,
2013-06-18 13:50:00,65.1,56.6,30.01,WSW,239,0.0,6.0,74,0.00,,OVC017,0.01,VWS V14.01,2013-06-18 17:50:00,
2013-06-18 13:55:00,65.1,57.0,30.01,West,271,0.0,6.0,75,0.00,,OVC017,0.01,VWS V14.01,2013-06-18 17:55:00,
2013-06-18 14:00:00,65.1,56.6,30.01,ESE,116,0.0,6.0,74,0.00,,OVC017,0.01,VWS V14.01,2013-06-18 18:00:00,
2013-06-18 14:05:00,65.4,56.5,30.00,SW,232,0.0,2.0,73,0.00,,OVC017,0.01,VWS V14.01,2013-06-18 18:05:00,
2013-06-18 14:10:00,65.5,55.1,30.00,NW,307,4.0,8.0,69,0.00,,OVC017,0.01,VWS V14.01,2013-06-18 18:10:00,
2013-06-18 14:15:00,65.9,56.2,30.00,NNE,17,1.0,8.0,71,0.00,,OVC017,0.01,VWS V14.01,2013-06-18 18:15:00,
2013-06-18 14:21:00,65.8,55.0,30.01,SSW,210,1.0,8.0,68,0.00,,OVC017,0.01,VWS V14.01,2013-06-18 18:21:00,
2013-06-18 14:26:00,65.4,53.8,30.01,West,279,1.0,8.0,66,0.00,,OVC017,0.01,VWS V14.01,2013-06-18 18:26:00,
2013-06-18 14:30:00,64.7,53.5,30.01,NW,319,0.0,8.0,67,0.00,,CLR,0.01,VWS V14.01,2013-06-18 18:30:00,
2013-06-18 14:31:00,64.8,53.6,30.01,West,269,1.0,8.0,67,0.00,,OVC017,0.01,VWS V14.01,2013-06-18 18:31:00,
2013-06-18 14:36:00,64.9,54.9,30.01,NE,45,2.0,2.0,70,0.00,,OVC017,0.01,VWS V14.01,2013-06-18 18:36:00,
2013-06-18 14:41:00,65.0,53.4,30.00,West,260,2.0,5.0,66,0.00,,OVC017,0.01,VWS V14.01,2013-06-18 18:41:00,
2013-06-18 14:46:00,64.7,53.5,30.00,WSW,253,1.0,5.0,67,0.00,,OVC023,0.01,VWS V14.01,2013-06-18 18:46:00,
2013-06-18 14:51:00,65.0,52.5,30.00,NNW,342,1.0,5.0,64,0.00,,OVC023,0.01,VWS V14.01,2013-06-18 18:51:00,
2013-06-18 14:57:00,64.8,52.8,30.00,SW,218,1.0,5.0,65,0.00,,OVC023,0.01,VWS V14.01,2013-06-18 18:57:00,
2013-06-18 15:00:00,64.9,51.6,30.00,West,277,1.0,5.0,62,0.00,,CLR,0.01,VWS V14.01,2013-06-18 19:00:00,
2013-06-18 15:02:00,64.9,52.0,30.00,WSW,240,3.0,5.0,63,0.00,,OVC023,0.01,VWS V14.01,2013-06-18 19:02:00,
2013-06-18 15:07:00,64.8,52.8,30.00,ENE,67,2.0,9.0,65,0.00,,OVC023,0.01,VWS V14.01,2013-06-18 19:07:00,
2013-06-18 15:12:00,64.9,52.5,30.00,SSW,200,1.0,9.0,64,0.00,,OVC023,0.01,VWS V14.01,2013-06-18 19:12:00,
2013-06-18 15:17:00,65.1,51.8,30.00,WNW,287,1.0,9.0,62,0.00,,OVC023,0.01,VWS V14.01,2013-06-18 19:17:00,
2013-06-18 15:22:00,64.9,51.2,30.00,West,281,2.0,9.0,61,0.00,,OVC023,0.01,VWS V14.01,2013-06-18 19:22:00,
2013-06-18 15:27:00,64.9,51.6,30.00,ESE,110,3.0,9.0,62,0.00,,OVC023,0.01,VWS V14.01,2013-06-18 19:27:00,
2013-06-18 15:30:00,64.9,50.7,30.00,NNW,346,0.0,9.0,60,0.00,,CLR,0.01,VWS V14.01,2013-06-18 19:30:00,
2013-06-18 15:32:00,64.9,50.7,30.00,NNW,346,0.0,9.0,60,0.00,,OVC023,0.01,VWS V14.01,2013-06-18 19:32:00,
2013-06-18 15:38:00,64.8,51.0,30.00,NNE,18,3.0,5.0,61,0.00,,OVC023,0.01,VWS V14.01,2013-06-18 19:38:00,
2013-06-18 15:43:00,64.6,50.9,30.00,SW,226,1.0,5.0,61,0.00,,OVC023,0.01,VWS V14.01,2013-06-18 19:43:00,
2013-06-18 15:48:00,64.7,51.8,30.00,East,90,1.0,5.0,63,0.00,,FEW031,0.01,VWS V14.01,2013-06-18 19:48:00,
2013-06-18 15:53:00,64.7,51.0,30.00,NW,314,6.0,6.0,61,0.00,,FEW031,0.01,VWS V14.01,2013-06-18 19:53:00,
2013-06-18 15:58:00,64.6,50.0,30.00,NNW,327,2.0,8.0,59,0.00,,FEW031,0.01,VWS V14.01,2013-06-18 19:58:00,
2013-06-18 16:00:00,64.7,51.0,30.00,NNW,327,2.0,10.0,61,0.00,,CLR,0.01,VWS V14.01,2013-06-18 20:00:00,
2013-06-18 16:03:00,64.7,51.0,30.00,NE,34,2.0,3.0,61,0.00,,FEW031,0.01,VWS V14.01,2013-06-18 20:03:00,
2013-06-18 16:08:00,64.9,51.2,29.99,SSE,162,3.0,6.0,61,0.00,,FEW031,0.01,VWS V14.01,2013-06-18 20:08:00,
2013-06-18 16:13:00,65.0,49.4,29.99,ESE,111,2.0,8.0,57,0.00,,FEW031,0.01,VWS V14.01,2013-06-18 20:13:00,
2013-06-18 16:18:00,64.8,49.7,29.99,SE,132,1.0,8.0,58,0.00,,FEW031,0.01,VWS V14.01,2013-06-18 20:18:00,
2013-06-18 16:23:00,64.7,49.1,29.99,NNE,17,1.0,8.0,57,0.00,,FEW031,0.01,VWS V14.01,2013-06-18 20:23:00,
2013-06-18 16:29:00,64.8,47.8,29.99,NW,307,4.0,8.0,54,0.00,,FEW031,0.01,VWS V14.01,2013-06-18 20:29:00,
2013-06-18 16:30:00,64.6,47.6,29.98,SW,222,1.0,8.0,54,0.00,,CLR,0.01,VWS V14.01,2013-06-18 20:30:00,
2013-06-18 16:35:00,64.6,49.0,29.98,South,169,2.0,3.0,57,0.00,,FEW031,0.01,VWS V14.01,2013-06-18 20:35:00,
2013-06-18 16:40:00,64.8,49.2,29.98,West,279,2.0,5.0,57,0.00,,FEW031,0.01,VWS V14.01,2013-06-18 20:40:00,
2013-06-18 16:45:00,65.2,50.1,29.98,SSW,212,0.0,5.0,58,0.00,,FEW031,0.01,VWS V14.01,2013-06-18 20:45:00,
2013-06-18 16:50:00,65.3,49.7,29.99,NNW,335,0.0,5.0,57,0.00,,FEW031,0.01,VWS V14.01,2013-06-18 20:50:00,
2013-06-18 16:55:00,65.3,49.7,29.98,NW,319,2.0,5.0,57,0.00,,FEW031,0.01,VWS V14.01,2013-06-18 20:55:00,
2013-06-18 17:00:00,65.0,49.4,29.98,NW,319,2.0,5.0,57,0.00,,FEW031,0.01,VWS V14.01,2013-06-18 21:00:00,
2013-06-18 17:05:00,65.1,49.5,29.98,SE,142,2.0,5.0,57,0.00,,FEW031,0.01,VWS V14.01,2013-06-18 21:05:00,
2013-06-18 17:10:00,65.3,49.7,29.98,SSE,163,3.0,5.0,57,0.00,,FEW031,0.01,VWS V14.01,2013-06-18 21:10:00,
2013-06-18 17:16:00,65.4,49.8,29.98,NW,304,0.0,5.0,57,0.00,,FEW031,0.01,VWS V14.01,2013-06-18 21:16:00,
2013-06-18 17:21:00,65.3,49.7,29.98,NNE,16,2.0,6.0,57,0.00,,FEW031,0.01,VWS V14.01,2013-06-18 21:21:00,
2013-06-18 17:26:00,65.2,49.1,29.98,SSW,210,1.0,6.0,56,0.00,,FEW031,0.01,VWS V14.01,2013-06-18 21:26:00,
2013-06-18 17:30:00,65.3,49.2,29.98,West,274,1.0,6.0,56,0.00,,CLR,0.01,VWS V14.01,2013-06-18 21:30:00,
2013-06-18 17:31:00,65.3,48.7,29.98,SSE,154,0.0,6.0,55,0.00,,FEW031,0.01,VWS V14.01,2013-06-18 21:31:00,
2013-06-18 17:36:00,65.2,48.2,29.98,NNE,29,5.0,6.0,54,0.00,,CLR,0.01,VWS V14.01,2013-06-18 21:36:00,
2013-06-18 17:41:00,65.1,48.5,29.99,WSW,257,3.0,6.0,55,0.00,,CLR,0.01,VWS V14.01,2013-06-18 21:41:00,
2013-06-18 17:46:00,65.0,48.5,29.99,ESE,121,2.0,6.0,55,0.00,,CLR,0.01,VWS V14.01,2013-06-18 21:46:00,
2013-06-18 17:52:00,65.0,49.4,29.99,SW,216,1.0,6.0,57,0.00,,CLR,0.01,VWS V14.01,2013-06-18 21:52:00,
2013-06-18 17:57:00,65.1,49.0,29.99,NE,47,2.0,6.0,56,0.00,,CLR,0.01,VWS V14.01,2013-06-18 21:57:00,
2013-06-18 18:05:00,65.0,48.0,29.99,WNW,300,2.0,2.0,54,0.00,,CLR,0.01,VWS V14.01,2013-06-18 22:05:00,
2013-06-18 18:10:00,65.0,48.9,29.99,NE,50,1.0,5.0,56,0.00,,CLR,0.01,VWS V14.01,2013-06-18 22:10:00,
2013-06-18 18:15:00,64.9,48.4,29.99,WSW,253,1.0,9.0,55,0.00,,CLR,0.01,VWS V14.01,2013-06-18 22:15:00,
2013-06-18 18:20:00,64.9,49.8,29.99,ESE,110,0.0,9.0,58,0.00,,CLR,0.01,VWS V14.01,2013-06-18 22:20:00,
2013-06-18 18:25:00,65.0,48.9,29.99,ENE,67,1.0,9.0,56,0.00,,CLR,0.01,VWS V14.01,2013-06-18 22:25:00,
2013-06-18 18:30:00,64.9,48.4,29.99,NNE,23,1.0,9.0,55,0.00,,CLR,0.01,VWS V14.01,2013-06-18 22:30:00,
2013-06-18 18:52:00,65.3,48.7,30.00,North,1,4.0,4.0,55,0.00,,CLR,0.01,VWS V14.01,2013-06-18 22:52:00,
2013-06-18 18:57:00,65.5,49.4,30.00,SE,137,0.0,4.0,56,0.00,,CLR,0.01,VWS V14.01,2013-06-18 22:57:00,
2013-06-18 19:00:00,65.5,48.9,30.00,SSW,208,1.0,4.0,55,0.00,,CLR,0.01,VWS V14.01,2013-06-18 23:00:00,
2013-06-18 19:02:00,65.5,48.9,30.00,WNW,295,0.0,4.0,55,0.00,,CLR,0.01,VWS V14.01,2013-06-18 23:02:00,
2013-06-18 19:07:00,65.1,48.1,30.00,West,278,1.0,7.0,54,0.00,,CLR,0.01,VWS V14.01,2013-06-18 23:07:00,
2013-06-18 19:12:00,64.8,48.3,30.00,West,264,1.0,7.0,55,0.00,,CLR,0.01,VWS V14.01,2013-06-18 23:12:00,
2013-06-18 19:17:00,64.8,48.3,30.00,SSE,150,2.0,7.0,55,0.00,,CLR,0.01,VWS V14.01,2013-06-18 23:17:00,
2013-06-18 19:22:00,64.6,48.6,30.00,WNW,302,3.0,7.0,56,0.00,,CLR,0.01,VWS V14.01,2013-06-18 23:22:00,
2013-06-18 19:27:00,64.1,48.1,30.00,West,277,1.0,7.0,56,0.00,,CLR,0.01,VWS V14.01,2013-06-18 23:27:00,
2013-06-18 19:30:00,63.5,48.0,30.00,WNW,293,1.0,7.0,57,0.00,,CLR,0.01,VWS V14.01,2013-06-18 23:30:00,
2013-06-18 19:32:00,63.5,48.0,30.00,WNW,294,1.0,7.0,57,0.00,,CLR,0.01,VWS V14.01,2013-06-18 23:32:00,
2013-06-18 19:38:00,63.0,48.9,30.00,WSW,242,0.0,2.0,60,0.00,,CLR,0.01,VWS V14.01,2013-06-18 23:38:00,
2013-06-18 19:43:00,62.7,48.2,30.00,South,188,0.0,3.0,59,0.00,,CLR,0.01,VWS V14.01,2013-06-18 23:43:00,
2013-06-18 19:48:00,62.3,49.1,30.00,WNW,283,1.0,3.0,62,0.00,,CLR,0.01,VWS V14.01,2013-06-18 23:48:00,
2013-06-18 19:53:00,62.0,48.8,30.00,WNW,283,0.0,3.0,62,0.00,,CLR,0.01,VWS V14.01,2013-06-18 23:53:00,
2013-06-18 19:58:00,61.5,49.2,30.01,SW,229,0.0,3.0,64,0.00,,CLR,0.01,VWS V14.01,2013-06-18 23:58:00,
2013-06-18 20:00:00,61.0,49.6,30.01,SW,229,0.0,3.0,66,0.00,,CLR,0.01,VWS V14.01,2013-06-19 00:00:00,
2013-06-18 20:03:00,61.0,49.6,30.01,SW,229,0.0,0.0,66,0.00,,CLR,0.01,VWS V14.01,2013-06-19 00:03:00,
2013-06-18 20:08:00,60.4,49.8,30.01,SW,229,0.0,0.0,68,0.00,,CLR,0.01,VWS V14.01,2013-06-19 00:08:00,
2013-06-18 20:13:00,59.7,49.5,30.01,SW,229,0.0,0.0,69,0.00,,CLR,0.01,VWS V14.01,2013-06-19 00:13:00,
2013-06-18 20:18:00,59.1,50.5,30.01,NW,326,0.0,1.0,73,0.00,,CLR,0.01,VWS V14.01,2013-06-19 00:18:00,
2013-06-18 20:23:00,58.6,51.1,30.01,NW,317,0.0,1.0,76,0.00,,CLR,0.01,VWS V14.01,2013-06-19 00:23:00,
2013-06-18 20:29:00,58.0,51.2,30.01,WNW,283,0.0,1.0,78,0.00,,CLR,0.01,VWS V14.01,2013-06-19 00:29:00,
2013-06-18 20:30:00,57.7,51.2,30.01,WNW,283,0.0,1.0,79,0.00,,OVC,0.01,VWS V14.01,2013-06-19 00:30:00,
2013-06-18 20:34:00,57.6,51.1,30.01,WNW,283,1.0,1.0,79,0.00,,CLR,0.01,VWS V14.01,2013-06-19 00:34:00,
2013-06-18 20:39:00,57.1,50.7,30.01,WNW,283,0.0,1.0,79,0.00,,CLR,0.01,VWS V14.01,2013-06-19 00:39:00,
2013-06-18 20:44:00,56.8,50.7,30.02,WNW,283,0.0,1.0,80,0.00,,CLR,0.01,VWS V14.01,2013-06-19 00:44:00,
2013-06-18 20:49:00,56.5,51.1,30.02,WNW,284,1.0,1.0,82,0.00,,CLR,0.01,VWS V14.01,2013-06-19 00:49:00,
2013-06-18 20:54:00,56.1,50.7,30.02,WNW,283,0.0,1.0,82,0.00,,CLR,0.01,VWS V14.01,2013-06-19 00:54:00,
2013-06-18 20:59:00,55.8,50.4,30.02,WNW,284,0.0,1.0,82,0.00,,CLR,0.01,VWS V14.01,2013-06-19 00:59:00,
2013-06-18 21:00:00,55.7,50.3,30.02,WNW,283,0.0,1.0,82,0.00,,OVC,0.01,VWS V14.01,2013-06-19 01:00:00,
2013-06-18 21:04:00,55.6,50.2,30.02,NNW,345,0.0,0.0,82,0.00,,CLR,0.01,VWS V14.01,2013-06-19 01:04:00,
2013-06-18 21:09:00,55.4,50.0,30.02,NNW,346,0.0,0.0,82,0.00,,CLR,0.01,VWS V14.01,2013-06-19 01:09:00,
2013-06-18 21:15:00,55.1,49.7,30.03,NNW,345,0.0,0.0,82,0.00,,CLR,0.01,VWS V14.01,2013-06-19 01:15:00,
2013-06-18 21:20:00,54.8,49.7,30.03,North,359,0.0,0.0,83,0.00,,CLR,0.01,VWS V14.01,2013-06-19 01:20:00,
2013-06-18 21:25:00,54.6,49.9,30.03,North,359,0.0,0.0,84,0.00,,CLR,0.01,VWS V14.01,2013-06-19 01:25:00,
2013-06-18 21:30:00,54.3,49.6,30.03,North,358,0.0,0.0,84,0.00,,CLR,0.01,VWS V14.01,2013-06-19 01:30:00,
2013-06-18 21:35:00,54.1,49.4,30.03,North,358,0.0,0.0,84,0.00,,CLR,0.01,VWS V14.01,2013-06-19 01:35:00,
2013-06-18 21:40:00,54.0,49.6,30.03,North,358,0.0,0.0,85,0.00,,CLR,0.01,VWS V14.01,2013-06-19 01:40:00,
2013-06-18 21:45:00,53.9,49.5,30.04,North,359,0.0,0.0,85,0.00,,CLR,0.01,VWS V14.01,2013-06-19 01:45:00,
2013-06-18 21:50:00,53.8,49.4,30.04,North,359,0.0,0.0,85,0.00,,CLR,0.01,VWS V14.01,2013-06-19 01:50:00,
2013-06-18 21:56:00,53.7,49.3,30.04,North,358,0.0,0.0,85,0.00,,CLR,0.01,VWS V14.01,2013-06-19 01:56:00,
2013-06-18 22:00:00,53.5,49.1,30.04,North,359,0.0,0.0,85,0.00,,OVC,0.01,VWS V14.01,2013-06-19 02:00:00,
2013-06-18 22:01:00,53.6,49.2,30.04,North,358,0.0,0.0,85,0.00,,CLR,0.01,VWS V14.01,2013-06-19 02:01:00,
2013-06-18 22:06:00,53.5,49.1,30.04,North,358,0.0,0.0,85,0.00,,CLR,0.01,VWS V14.01,2013-06-19 02:06:00,
2013-06-18 22:11:00,53.3,49.2,30.04,North,359,0.0,0.0,86,0.00,,CLR,0.01,VWS V14.01,2013-06-19 02:11:00,
2013-06-18 22:16:00,53.1,49.3,30.04,North,356,0.0,0.0,87,0.00,,CLR,0.01,VWS V14.01,2013-06-19 02:16:00,
2013-06-18 22:22:00,52.7,49.2,30.04,North,356,0.0,0.0,88,0.00,,CLR,0.01,VWS V14.01,2013-06-19 02:22:00,
2013-06-18 22:27:00,52.3,48.9,30.05,North,356,0.0,0.0,88,0.00,,CLR,0.01,VWS V14.01,2013-06-19 02:27:00,
2013-06-18 22:30:00,51.9,48.8,30.05,North,356,0.0,0.0,89,0.00,,OVC,0.01,VWS V14.01,2013-06-19 02:30:00,
2013-06-18 22:32:00,51.9,48.8,30.05,North,356,0.0,0.0,89,0.00,,CLR,0.01,VWS V14.01,2013-06-19 02:32:00,
2013-06-18 22:37:00,51.6,48.5,30.05,North,357,0.0,0.0,89,0.00,,CLR,0.01,VWS V14.01,2013-06-19 02:37:00,
2013-06-18 22:42:00,51.3,48.5,30.04,North,357,0.0,0.0,90,0.00,,CLR,0.01,VWS V14.01,2013-06-19 02:42:00,
2013-06-18 22:47:00,51.1,48.3,30.05,North,359,0.0,0.0,90,0.00,,CLR,0.01,VWS V14.01,2013-06-19 02:47:00,
2013-06-18 22:52:00,50.8,48.0,30.05,North,358,0.0,0.0,90,0.00,,CLR,0.01,VWS V14.01,2013-06-19 02:52:00,
2013-06-18 22:57:00,50.6,48.1,30.05,North,358,0.0,0.0,91,0.00,,CLR,0.01,VWS V14.01,2013-06-19 02:57:00,
2013-06-18 23:00:00,50.5,48.3,30.05,North,359,0.0,0.0,92,0.00,,OVC,0.01,VWS V14.01,2013-06-19 03:00:00,
2013-06-18 23:02:00,50.5,48.3,30.05,North,358,0.0,0.0,92,0.00,,CLR,0.01,VWS V14.01,2013-06-19 03:02:00,
2013-06-18 23:08:00,50.5,48.3,30.04,North,359,0.0,0.0,92,0.00,,CLR,0.01,VWS V14.01,2013-06-19 03:08:00,
2013-06-18 23:13:00,50.5,48.3,30.05,North,357,0.0,0.0,92,0.00,,CLR,0.01,VWS V14.01,2013-06-19 03:13:00,
2013-06-18 23:18:00,50.3,48.1,30.05,North,356,0.0,0.0,92,0.00,,CLR,0.01,VWS V14.01,2013-06-19 03:18:00,
2013-06-18 23:23:00,50.2,48.3,30.05,North,357,0.0,0.0,93,0.00,,CLR,0.01,VWS V14.01,2013-06-19 03:23:00,
2013-06-18 23:28:00,50.1,48.2,30.05,North,357,0.0,0.0,93,0.00,,CLR,0.01,VWS V14.01,2013-06-19 03:28:00,
2013-06-18 23:30:00,49.9,48.0,30.05,North,356,0.0,0.0,93,0.00,,OVC,0.01,VWS V14.01,2013-06-19 03:30:00,
2013-06-18 23:33:00,49.9,48.0,30.05,North,357,0.0,0.0,93,0.00,,CLR,0.01,VWS V14.01,2013-06-19 03:33:00,
2013-06-18 23:38:00,49.8,47.9,30.05,North,356,0.0,0.0,93,0.00,,CLR,0.01,VWS V14.01,2013-06-19 03:38:00,
2013-06-18 23:44:00,49.6,47.7,30.05,North,357,0.0,0.0,93,0.00,,CLR,0.01,VWS V14.01,2013-06-19 03:44:00,
2013-06-18 23:49:00,49.3,47.4,30.06,North,357,0.0,0.0,93,0.00,,FEW047,0.01,VWS V14.01,2013-06-19 03:49:00,
2013-06-18 23:54:00,49.1,47.5,30.06,North,357,0.0,0.0,94,0.00,,FEW047,0.01,VWS V14.01,2013-06-19 03:54:00,
2013-06-18 23:59:00,48.9,47.2,30.06,North,356,0.0,0.0,94,0.00,,FEW047,0.01,VWS V14.01,2013-06-19 03:59:00,